FREPRT-WX Weather Reports


time (UTC)temp
F
wind
direction
speed
knots
gust
knots
rain 1hr
in
rain 24hr
in
rain mn
in
humidity
%
barometer
mb
20260509053054 44 169 7.0 0.0 0.00 0.00 0.00 45 977.5
20260509051537 44 163 6.1 0.0 0.00 0.00 0.00 45 977.5
20260509050109 44 171 6.1 0.0 0.00 0.00 0.00 45 977.5
20260509044538 45 175 6.1 0.0 0.00 0.00 0.00 42 978.4
20260509043054 45 176 5.2 0.0 0.00 0.00 0.00 45 977.3
20260509041537 46 174 5.2 0.0 0.00 0.00 0.00 45 977.3
20260509040113 46 178 6.1 0.0 0.00 0.00 0.00 45 977.3
20260509034538 46 180 6.1 0.0 0.00 0.00 0.00 46 978.1
20260509033053 47 175 6.1 0.0 0.00 0.00 0.00 38 978.8
20260509031537 48 176 5.2 0.0 0.00 0.00 0.00 38 978.8
20260509030109 48 184 5.2 0.0 0.00 0.00 0.00 38 978.8
20260509024537 49 193 5.2 0.0 0.00 0.00 0.00 28 979.1
20260509023056 50 202 5.2 0.0 0.00 0.00 0.00 34 979.1
20260509021537 50 215 5.2 0.0 0.00 0.00 0.00 34 979.0
20260509020107 50 222 5.2 0.0 0.00 0.00 0.00 34 979.0
20260509014537 51 222 5.2 0.0 0.00 0.00 0.00 36 978.8
20260509013052 51 240 3.5 0.0 0.00 0.00 0.00 36 978.8
20260509011537 52 254 3.5 0.0 0.00 0.00 0.00 36 978.9
20260509004536 54 263 4.3 0.0 0.00 0.00 0.00 30 978.6
20260509003054 55 262 3.5 0.0 0.00 0.00 0.00 31 980.0
20260509001536 56 267 3.5 0.0 0.00 0.00 0.00 31 979.9
20260509000112 57 268 4.3 0.0 0.00 0.00 0.00 31 979.9
20260508234537 58 270 6.1 0.0 0.00 0.00 0.00 25 979.0
20260508233057 59 270 7.0 0.0 0.00 0.00 0.00 24 979.5
20260508231539 59 269 7.8 0.0 0.00 0.00 0.00 24 979.5
20260508224538 60 269 8.7 0.0 0.00 0.00 0.00 24 979.6
20260508223057 60 272 9.6 0.0 0.00 0.00 0.00 22 980.5
20260508221539 60 270 10.4 0.0 0.00 0.00 0.00 22 980.5
20260508220104 61 268 10.4 0.0 0.00 0.00 0.00 22 980.5
20260508214539 61 266 10.4 0.0 0.00 0.00 0.00 22 981.0
20260508213056 61 263 11.3 0.0 0.00 0.00 0.00 24 980.4
20260508211539 62 259 10.4 0.0 0.00 0.00 0.00 24 980.4
20260508210108 62 257 10.4 0.0 0.00 0.00 0.00 24 980.4
20260508204539 62 252 10.4 0.0 0.00 0.00 0.00 30 980.6
20260508203057 62 248 10.4 0.0 0.00 0.00 0.00 26 980.4
20260508201539 62 249 7.8 0.0 0.00 0.00 0.00 26 980.4
20260508200104 62 252 8.7 0.0 0.00 0.00 0.00 26 980.4
20260508194539 62 254 8.7 0.0 0.00 0.00 0.00 23 980.8
20260508193054 62 256 8.7 0.0 0.00 0.00 0.00 23 980.8
20260508191538 62 257 8.7 0.0 0.00 0.00 0.00 23 980.8
20260508184539 61 254 8.7 0.0 0.00 0.00 0.00 28 981.2
20260508183058 61 249 8.7 0.0 0.00 0.00 0.00 28 980.9
20260508181538 61 246 8.7 0.0 0.00 0.00 0.00 28 980.9
20260508180108 61 247 8.7 0.0 0.00 0.00 0.00 28 980.9
20260508174539 60 248 9.6 0.0 0.00 0.00 0.00 31 981.8
20260508173057 60 252 9.6 0.0 0.00 0.00 0.00 31 981.8
20260508171539 59 251 8.7 0.0 0.00 0.00 0.00 31 981.8
20260508170104 59 255 8.7 0.0 0.00 0.00 0.00 31 981.8
20260508164538 58 254 7.8 0.0 0.00 0.00 0.00 36 982.1
20260508163057 58 251 7.0 0.0 0.00 0.00 0.00 36 982.4
20260508161539 57 241 7.0 0.0 0.00 0.00 0.00 36 982.3
20260508160109 56 237 7.0 0.0 0.00 0.00 0.00 36 982.3
20260508154539 55 230 6.1 0.0 0.00 0.00 0.00 38 983.3
20260508153059 54 211 5.2 0.0 0.00 0.00 0.00 44 982.3
20260508151539 53 203 5.2 0.0 0.00 0.00 0.00 44 982.3
20260508150108 53 205 4.3 0.0 0.00 0.00 0.00 44 982.3
20260508144539 52 198 3.5 0.0 0.00 0.00 0.00 61 982.4
20260508143056 51 201 4.3 0.0 0.00 0.00 0.00 59 982.6
20260508141539 51 200 4.3 0.0 0.00 0.00 0.00 59 982.6
20260508140115 50 200 3.5 0.0 0.00 0.00 0.00 61 982.5
20260508134539 49 200 3.5 0.0 0.00 0.00 0.00 71 982.3
20260508133054 48 193 5.2 0.0 0.00 0.00 0.00 71 982.3
20260508131539 46 190 5.2 0.0 0.00 0.00 0.00 71 982.3
20260508130112 44 188 5.2 0.0 0.00 0.00 0.00 71 982.3
20260508124539 43 184 5.2 0.0 0.00 0.00 0.00 86 981.5
20260508123057 42 192 4.3 0.0 0.00 0.00 0.00 84 982.1
20260508121539 41 186 3.5 0.0 0.00 0.00 0.00 84 982.1
20260508120119 39 176 1.7 0.0 0.00 0.00 0.00 84 982.1
20260508114538 38 180 1.7 0.0 0.00 0.00 0.00 85 981.5
20260508113100 37 176 2.6 0.0 0.00 0.00 0.00 80 982.3
20260508111538 36 162 3.5 0.0 0.00 0.00 0.00 80 982.3
20260508110105 36 162 3.5 0.0 0.00 0.00 0.00 80 982.3
20260508104541 35 153 3.5 0.0 0.00 0.00 0.00 76 981.4
20260508103058 35 146 3.5 0.0 0.00 0.00 0.00 73 982.3
20260508101541 36 157 2.6 0.0 0.00 0.00 0.00 73 982.4
20260508100104 37 153 2.6 0.0 0.00 0.00 0.00 73 982.4
20260508094540 37 141 2.6 0.0 0.00 0.00 0.00 69 981.7
20260508093054 37 145 1.7 0.0 0.00 0.00 0.00 72 982.4
20260508091541 38 186 3.5 0.0 0.00 0.00 0.00 72 982.5
20260508090108 38 192 3.5 0.0 0.00 0.00 0.00 72 982.5
20260508084541 38 189 3.5 0.0 0.00 0.00 0.00 69 981.9
20260508083059 38 189 3.5 0.0 0.00 0.00 0.00 75 981.7
20260508081540 39 195 3.5 0.0 0.00 0.00 0.00 75 981.7
20260508080110 39 198 3.5 0.0 0.00 0.00 0.00 75 981.7
20260508074541 39 210 3.5 0.0 0.00 0.00 0.00 82 982.5
20260508073059 39 214 3.5 0.0 0.00 0.00 0.00 82 982.5
20260508071540 40 207 3.5 0.0 0.00 0.00 0.00 82 982.6
20260508070110 40 212 4.3 0.0 0.00 0.00 0.00 82 982.6
20260508064539 40 212 4.3 0.0 0.00 0.00 0.00 80 982.3
20260508063056 40 211 3.5 0.0 0.00 0.00 0.00 83 982.7
20260508061540 41 220 2.6 0.0 0.00 0.00 0.00 83 982.7
20260508060121 40 225 3.5 0.0 0.00 0.00 0.00 83 982.7
20260508054539 41 213 3.5 0.0 0.00 0.00 0.00 82 983.5